CZ-4B DEB, 37572

Orbit data source: Space-Track

CZ-4B DEB, 37572 is space debris in SSO originally from a launch on Tue, 27 May 2008 UTC launched from the Taiyaun Space Center, China (TSC). Debris objects in space refer to the collection of defunct objects orbiting the Earth. Examples of debris include non-operational satellites, rocket bodies, and fragments generated from explosions, collisions, or faulty payload assembly.

Loading next visibility...
Identifier
37572, 2008-026D
Orbit
SSO
Country
Flag of CNCN / PRC
Related business
Manufacturer
Unknown
Mission
Spacecraft
Bus & Motor
Unknown
Mass
Unknown
Launch date (UTC)
2008-05-27 (18 years ago)
Launch vehicle
Unknown
Launch site
Taiyaun Space Center, China (TSC)
Object type
Payload
Rocket body
Debris
Shape & HBR
Unknown shape, 0.1 m
Radar Cross Section
Small (<0.1 m²)

Expand to show TLE details & history
Last TLE update: 4 days ago

TLE from 4 days ago
0 CZ-4B DEB
1 37572U 08026D   26169.81632144  .00000298  00000-0  27292-3 0  9997
2 37572  98.7069 169.0079 0238347 209.7193 275.5112 13.77947078895632
Epoch: 2026-06-18T19:35Z
TLE epoch observation values (Epoch: 2026-06-18T19:35:30.172Z)
Latitude
56.57052°
Longitude
161.42148°
Altitude
967.91 km
Speed
7.379 km/s
True Right ascension
00h 09m 24s
True Declination
56° 25' 00"
Sunlit
Object was in daylight at epoch
Visualization orbit readout
Latitude
Unknown
Longitude
Unknown
Altitude
Unknown
Speed
Unknown
Apparent Right ascension
Unknown
Apparent Declination
Unknown
Sunlit
N/A
Visualization observer readout
Local Sidereal Time
23:26:02
Azimuth
Unknown
Elevation
Unknown
Doppler factor
Unknown
Orbital elements
Apogee altitude
1,143.492 km
Perigee altitude
793.288 km
Semi-major axis
7,346.527 km
Eccentricity
0.02383
Inclination
98.7069°
RAAN
169.0079°
Arg. of periapsis
209.7193°
True anomaly
272.7858°
Mean anomaly
275.5112°
Eccentric anomaly
274.14915°
Mean motion
3.44683 °/min
Orbital period
104.44 mins
BSTAR
0.00027292
Loading maneuver chart data...
Computing Atmospheric mass density...
Loading historical data...
Loading historical data...
Loading historical data...
Loading historical data...
Loading historical data...
Loading historical data...
Loading historical data...

Documentation

Showing up to 5 results
|